Tracking 17557 objects as of 8-February-2016
HD Live streaming from Space Station
objects crossing your sky now

BREEZE-M DEB

Track BREEZE-M DEB now!
10-day predictions


NORAD ID: 34259
Int'l Code: 2006-006CA
Perigee: 1,118.2 km
Apogee: 15,032.3 km
Inclination: 51.0 °
Period: 288.0 minutes
Semi major axis: 14446 km
RCS: 0.2413 m2 (medium)
Launch date: February 28, 2006
Source: Commonwealth of Independent States (former USSR) (CIS)
Launch site: TYURATAM MISSILE AND SPACE COMPLEX (TTMTR)

Note: This is SATELLITE DEBRIS
Your satellite tracking list
Your tracking list is empty





NASA's NSSDC Master Catalog

Two Line Element Set (TLE):
1 34259U 06006CA  16037.92427671 -.00000043 +00000-0 +00000-0 0  9998
2 34259 050.9585 307.5460 4815805 029.0405 350.8383 05.8358998185248
Source of the keplerian elements: AFSPC

N2YO: 438